Content
SEND FEEDBACK

Daily
Averages
Monthly
Summary
United States of America

ST. LOUIS - SAINT LOUIS UNIVERSITY, MISSOURI


Home > North America > United States > Missouri
Elevation: 580 feet     Latitude: 38 38N     Longitude: 090 14W

WEATHER
 
SELECT A DAY
Number of Records: 186,092;   Date Range: 1/1/95 - 7/29/14
 
SHARE

PRINT THIS DATA

[ ← Previous Day ]
WEATHER ALMANAC - JANUARY 18, 2013
[ Next Day → ]
[ °C ]   °F
Weather ElementAverageHighLow
Temperature37.5 °F52 °F (2:53 pm)21.9 °F (2:53 am)
Dewpoint23.3 °F28 °F (10:53 pm)18 °F (5:53 am)
Humidity59.8 %89 % (2:53 am)37 % (2:53 pm)
Barometer30.35 in30.52 in (1:53 am)30.16 in (10:53 pm)
Wind Speed6.6 mph12.7 mph (11:53 am)
Wind Gust18.4 mph (10:53 pm)
Weather ElementAverage
Visibility10 mi
Wind DirectionSE (130.9 °)

Weather ElementTotal
Precipitation---
Heating Degree Days28.1 (Base 65)
Averaged from 22 records on January 18, 2013
WEATHER CONDITIONS BREAKOUT
WIND DIRECTION BREAKOUT
WEATHER BY HOUR - JANUARY 18, 2013
[ °C ]   °F
Local TimeTemperatureDewpointHumidityBarometerVisibilityWind DirectionWind SpeedGust SpeedPrecipitationEventsConditions
1:53 AM23.0 °F19.9 °F88 %30.52 in10.0 miCalmClear
2:53 AM21.9 °F19.0 °F89 %30.52 in10.0 miCalmClear
3:53 AM21.9 °F19.0 °F89 %30.52 in10.0 miCalmClear
4:53 AM21.9 °F19.0 °F89 %30.51 in10.0 miCalmClear
5:53 AM21.9 °F18.0 °F85 %30.50 in10.0 miCalmClear
6:53 AM25.0 °F18.0 °F75 %30.49 in10.0 miCalmClear
7:53 AM26.1 °F19.0 °F75 %30.49 in10.0 miSSW (200°)3.5 mphClear
8:53 AM33.1 °F21.0 °F61 %30.49 in10.0 miSouth (190°)4.6 mphClear
9:53 AM37.0 °F21.9 °F54 %30.47 in10.0 miSouth (190°)9.2 mphClear
10:53 AM41.0 °F23.0 °F49 %30.44 in10.0 miSSW (200°)6.9 mphClear
11:53 AM44.1 °F24.1 °F45 %30.38 in10.0 miSouth (170°)12.7 mphClear
12:53 PM46.9 °F27.0 °F46 %30.33 in10.0 miSouth (170°)11.5 mphClear
1:53 PM50.0 °F27.0 °F41 %30.29 in10.0 miSSE (160°)10.4 mphClear
2:53 PM52.0 °F26.1 °F37 %30.25 in10.0 miSSE (160°)11.5 mphClear
3:53 PM51.1 °F26.1 °F38 %30.23 in10.0 miSouth (170°)11.5 mphClear
4:53 PM48.9 °F26.1 °F41 %30.21 in10.0 miSouth (180°)9.2 mphClear
5:53 PM46.0 °F26.1 °F46 %30.22 in10.0 miSouth (170°)10.4 mphClear
6:53 PM45.0 °F25.0 °F46 %30.21 in10.0 miSouth (170°)11.5 mphClear
7:53 PM42.1 °F26.1 °F53 %30.20 in10.0 miSouth (180°)8.1 mphClear
8:53 PM39.9 °F26.1 °F58 %30.18 in10.0 miSouth (180°)5.8 mphClear
9:53 PM42.1 °F27.0 °F55 %30.17 in10.0 miSouth (190°)8.1 mph16.1 mphClear
10:53 PM43.0 °F28.0 °F56 %30.16 in10.0 miSSW (200°)9.2 mph18.4 mphClear
Hourly data recorded from KCPS, located miles away from St. Louis - Saint Louis University, Missouri







STORIES FROM OUR PARTNERS